Tracking 25648 objects as of 17-May-2022
HD Live streaming from Space Station
objects crossing your sky now

FLOCK 3K 7

Track FLOCK 3K 7 now!
10-day predictions
FLOCK 3K 7 is classified as:


NORAD ID: 43902
Int'l Code: 2018-111AC
Perigee: 451.9 km
Apogee: 474.7 km
Inclination: 97.2 °
Period: 93.7 minutes
Semi major axis: 6834 km
RCS: Unknown
Launch date: December 27, 2018
Source: United States (US)
Launch site: VOSTOCHNY COSMODROME (VOSTO)
aabbcc
Your satellite tracking list
Your tracking list is empty




NASA's NSSDC Master Catalog

Two Line Element Set (TLE):
1 43902U 18111AC  22136.26279372  .00013786  00000-0  38592-3 0  9997
2 43902  97.1984  27.5809 0016647 172.7236 187.4253 15.36610027188638
Source of the keplerian elements: AFSPC